This is the latest recevied weather packets stored in our database for station/object IR4UCA. If no packets are shown the sender has not sent any weather packets the latest 10 day(s).
| Time | Temp. | Humidity | Pressure | Rain* | Wind** | Luminosity | Snow |
|---|---|---|---|---|---|---|---|
| 1777541984 | 16.67° C | 59% | 1024 hPa | 0 mm | - | - | - |
| 1777541384 | 16.67° C | 61% | 1024.1 hPa | 0 mm | - | - | - |
| 1777540785 | 16.67° C | 61% | 1024.1 hPa | 0 mm | - | - | - |
| 1777540185 | 15.56° C | 62% | 1023.9 hPa | 0 mm | - | - | - |
| 1777539583 | 15.56° C | 64% | 1023.8 hPa | 0 mm | - | - | - |
| 1777538985 | 15.56° C | 65% | 1023.9 hPa | 0 mm | - | - | - |
| 1777538384 | 15.56° C | 65% | 1023.9 hPa | 0 mm | - | - | - |
| 1777537785 | 15.56° C | 66% | 1023.7 hPa | 0 mm | - | - | - |
| 1777537184 | 15.56° C | 67% | 1023.6 hPa | 0 mm | - | - | - |
| 1777536585 | 15.56° C | 67% | 1023.5 hPa | 0 mm | - | - | - |
| 1777535986 | 15.56° C | 68% | 1023.3 hPa | 0 mm | - | - | - |
| 1777535385 | 15.56° C | 66% | 1023.2 hPa | 0 mm | - | - | - |
| 1777534784 | 15° C | 67% | 1023.1 hPa | 0 mm | - | - | - |
| 1777534184 | 15° C | 69% | 1023 hPa | 0 mm | - | - | - |
| 1777533584 | 15° C | 72% | 1023 hPa | 0 mm | - | - | - |
| 1777532985 | 14.44° C | 81% | 1023 hPa | 0 mm | - | - | - |
| 1777532384 | 14.44° C | 81% | 1023.1 hPa | 0 mm | - | - | - |
| 1777531785 | 14.44° C | 83% | 1023 hPa | 0 mm | - | - | - |
| 1777531184 | 14.44° C | 82% | 1022.9 hPa | 0 mm | - | - | - |
| 1777530584 | 14.44° C | 83% | 1022.9 hPa | 0 mm | - | - | - |
| 1777529985 | 13.89° C | 83% | 1022.9 hPa | 0 mm | - | - | - |
| 1777529385 | 13.89° C | 82% | 1022.7 hPa | 0 mm | - | - | - |
| 1777528783 | 13.89° C | 83% | 1022.6 hPa | 0 mm | - | - | - |
| 1777528185 | 13.89° C | 82% | 1022.6 hPa | 0 mm | - | - | - |
| 1777527584 | 13.33° C | 82% | 1022.5 hPa | 0 mm | - | - | - |
* Rain latest hour (hover to see other rain measurements)
** Current wind speed in m/s (hover to see current wind gust speed)